"Pseudo-MPEC" for P112hFw

Created 2020 Jun 30 19:07:12 UT using Find_Orb

Click here for an explanation of pseudo-MPECs

 
 Astrometry: 
     P112hFw  C2020 06 26*kCptD20`:)Hr'(k#DemlD08850v;fh^\b(nbm/WP1)W9t489(*7F51
     P112hFw  C2020 06 26\:PtO:pj'^)ce2=Xutb,#tQ.8E6B\L62Fe'=/.U8KV$7s62Gy?$sF51
     P112hFw  C2020 06 26sU[1L-7xC#E.*q8K0[hAstrometryU.XBU1;Y^4i@ECl,ZjO^i7BF51
     P112hFw  C2020 06 29_.51rSl`bUs*0*EDi3gc20Uredacted;Eym]C^%(m:mem:0oynY]F51
     P112hFw  C2020 06 29:#'ji:UxXR]ub#1#KQJe1ZZdO9GCq($aqpJQp1-wOJT;'%FQjWf$F51
     P112hFw  C2020 06 29uorvli$pPPiG@qVQYSZ)au0gAa1R'jMPbJBQclick(m[X\\2VThaF51
     P112hFw  C2020 06 293uAp]q$lAiEIYLSuPvLYC.kYDX5RFv?Bq5Yh;][]Z``,95]ibp2JF52
     P112hFw  C2020 06 29;knsZ!@V@(VuJq2_.8?nR.h=Q*3d.N/VHjWhereBx^(T3-%yl47fF52
     P112hFw  C2020 06 29(Dljf/vpv`X$I49lH:D`vRM)WLvE(.Lfor(qHRGb0K2D,Kj.?hI@F52
     P112hFw  C2020 06 30vyR#OQAkY]S`?J.qKq'Q)%].JkN8nD3kw?HMpC*ZLjyPxJIQS,0jF51
     P112hFw  C2020 06 30;Z5CM*g:Od3Qk]tdgT61-fdWh3bu@L?5aUX49E(hc;?Uxm?@!/QbF51
     P112hFw  C2020 06 30u;?)[m#-38nhp\[explanationodIXYBg2i`Rjo]REyKc\,0_mCwF51

Station data:
(F51) Pan-STARRS 1, Haleakala  (N20.707235 W156.255910)  US/Hawaii.
   Observers N. Primak, A. Schultz, S. Watters, J. Thiel, T. Goggia. Measurer
   PS1 Science Consortium. 1.8-m Ritchey-Chrétien + CCD.
(F52) Pan-STARRS 2, Haleakala  (N20.707384 W156.255910)  US/Hawaii. 1.8-m
   Ritchey-Chrétien + CCD.

Orbital elements:  P112hFw
   Perihelion 2020 Jun 28.512055 +/- 0.439 TT = 12:17:21 (JD 2459029.012055)
Epoch 2020 Jun 30.0 TT = JDT 2459030.5   Earth MOID: 0.4462   Ma: 0.0682
M   0.32537603 +/- 0.09             (J2000 ecliptic)          AutoNEOCP
n   0.21867475 +/- 0.00742          Peri.  176.48027 +/- 0.29
a   2.72858161 +/- 0.0617           Node   118.18972 +/- 0.11
e   0.4640779 +/- 0.0104            Incl.   12.16087 +/- 0.10
P   4.51                   H 21.1   G  0.15   U  9.4  
q 1.46230718 +/- 0.00498    Q 3.99485605 +/- 0.122
From 12 observations 2020 June 26-30; mean residual 0".15
Residuals in arcseconds: 
200626 F51  .16-  .25+    200629 F51  .01+  .05-    200629 F52  .03-  .15-    
200626 F51  .24-  .04-    200629 F51  .10+  .01-    200630 F51  .03-  .06+    
200626 F51  .40+  .22-    200629 F52  .04-  .35+    200630 F51  .04+  .03-    
200629 F51  .01+  .07-    200629 F52  .02-  .09-    200630 F51  .02-  .04-    

Ephemerides (geocentric):
Date (UTC) HH   RA              Dec         delta   r     elong  mag " sig PA
---- -- -- --  -------------   -----------  ------ ------ -----  --- ---- ---
2020 06 30 19  21 57 39.206   -11 18 48.09  .57463 1.4625 131.6 22.1 .224  36
2020 06 30 20  21 57 43.373   -11 19 22.31  .57447 1.4625 131.6 22.1 .243  35
2020 06 30 21  21 57 47.538   -11 19 56.58  .57431 1.4625 131.6 22.1 .262  35
2020 06 30 22  21 57 51.700   -11 20 30.89  .57415 1.4625 131.6 22.1 .282  34
2020 06 30 23  21 57 55.858   -11 21 05.25  .57399 1.4625 131.7 22.1 .302  33
2020 07 01 00  21 58 00.014   -11 21 39.66  .57384 1.4625 131.7 22.1 .322  33
2020 07 01 01  21 58 04.167   -11 22 14.11  .57368 1.4625 131.7 22.1 .343  32
2020 07 01 02  21 58 08.317   -11 22 48.62  .57352 1.4625 131.7 22.1 .364  32
2020 07 01 03  21 58 12.463   -11 23 23.16  .57336 1.4625 131.8 22.1 .386  32
2020 07 01 04  21 58 16.607   -11 23 57.76  .57320 1.4625 131.8 22.1 .407  31
2020 07 01 05  21 58 20.748   -11 24 32.40  .57305 1.4625 131.8 22.1 .430  31
2020 07 01 06  21 58 24.886   -11 25 07.09  .57289 1.4625 131.9 22.1 .452  31
2020 07 01 07  21 58 29.021   -11 25 41.82  .57273 1.4626 131.9 22.1 .475  30
2020 07 01 08  21 58 33.152   -11 26 16.61  .57257 1.4626 131.9 22.1 .498  30
2020 07 01 09  21 58 37.281   -11 26 51.44  .57242 1.4626 131.9 22.1 .522  30
2020 07 01 10  21 58 41.407   -11 27 26.31  .57226 1.4626 132.0 22.1 .546  30
2020 07 01 11  21 58 45.530   -11 28 01.23  .57210 1.4626 132.0 22.1 .570  30
2020 07 01 12  21 58 49.650   -11 28 36.20  .57195 1.4626 132.0 22.1 .595  29
2020 07 01 13  21 58 53.766   -11 29 11.22  .57179 1.4626 132.0 22.1 .620  29
2020 07 01 14  21 58 57.880   -11 29 46.28  .57163 1.4626 132.1 22.1 .646  29
2020 07 01 15  21 59 01.991   -11 30 21.39  .57148 1.4626 132.1 22.1 .671  29
2020 07 01 16  21 59 06.099   -11 30 56.54  .57132 1.4626 132.1 22.1 .697  29
2020 07 01 17  21 59 10.203   -11 31 31.74  .57117 1.4626 132.2 22.1 .724  29
2020 07 01 18  21 59 14.305   -11 32 06.99  .57101 1.4626 132.2 22.1 .751  29
2020 07 01 19  21 59 18.404   -11 32 42.28  .57086 1.4627 132.2 22.1 .778  29
2020 07 01 20  21 59 22.499   -11 33 17.63  .57070 1.4627 132.2 22.1 .805  28
2020 07 01 21  21 59 26.592   -11 33 53.01  .57055 1.4627 132.3 22.1 .833  28
2020 07 01 22  21 59 30.681   -11 34 28.45  .57039 1.4627 132.3 22.1 .862  28
2020 07 01 23  21 59 34.768   -11 35 03.93  .57024 1.4627 132.3 22.1 .890  28
2020 07 02 00  21 59 38.851   -11 35 39.46  .57008 1.4627 132.3 22.1 .919  28
2020 07 02 01  21 59 42.931   -11 36 15.03  .56993 1.4627 132.4 22.1 .949  28
2020 07 02 02  21 59 47.009   -11 36 50.65  .56978 1.4627 132.4 22.1 .978  28
2020 07 02 03  21 59 51.083   -11 37 26.32  .56962 1.4627 132.4 22.1 1.01  28
2020 07 02 04  21 59 55.154   -11 38 02.03  .56947 1.4627 132.5 22.1 1.04  28
2020 07 02 05  21 59 59.222   -11 38 37.79  .56932 1.4627 132.5 22.1 1.07  28
2020 07 02 06  22 00 03.287   -11 39 13.60  .56916 1.4628 132.5 22.1 1.10  28
2020 07 02 07  22 00 07.349   -11 39 49.45  .56901 1.4628 132.5 22.1 1.13  28
2020 07 02 08  22 00 11.408   -11 40 25.35  .56886 1.4628 132.6 22.1 1.16  27
2020 07 02 09  22 00 15.464   -11 41 01.29  .56871 1.4628 132.6 22.1 1.20  27
2020 07 02 10  22 00 19.517   -11 41 37.28  .56855 1.4628 132.6 22.0 1.23  27
2020 07 02 11  22 00 23.566   -11 42 13.32  .56840 1.4628 132.7 22.0 1.26  27
2020 07 02 12  22 00 27.613   -11 42 49.41  .56825 1.4628 132.7 22.0 1.30  27
2020 07 02 13  22 00 31.656   -11 43 25.54  .56810 1.4628 132.7 22.0 1.33  27
2020 07 02 14  22 00 35.697   -11 44 01.72  .56795 1.4628 132.7 22.0 1.36  27
2020 07 02 15  22 00 39.734   -11 44 37.94  .56779 1.4628 132.8 22.0 1.40  27
2020 07 02 16  22 00 43.768   -11 45 14.21  .56764 1.4629 132.8 22.0 1.43  27
2020 07 02 17  22 00 47.799   -11 45 50.53  .56749 1.4629 132.8 22.0 1.47  27
2020 07 02 18  22 00 51.827   -11 46 26.89  .56734 1.4629 132.8 22.0 1.50  27